Current weather by "City, St" or "zip code"  
 

Current Conditions: Fort Hood, Hood AAF Ft Hood, TX

Overcast


60.0 F

Last Updated on Jan 22 2019, 9:58 am CST
Humidity: 81%
Wind Speed: S 12.7 G 19.6 mph
Barometer 29.80 in
Dewpoint: 53.8 F
Visibility: 10.00 mi
Precip: --
Heat Index: NA
Wind Chill: 58 F
Current conditions at:

Fort Hood, Hood AAF Ft Hood, TX (KHLR)

Lat: 31.13 Lon: 97.7

Local Radar Image active severe weather and emergency alerts image image weather storm and storm spotter reports image weather observation monitoring service image
Local
Radar
Active
Alerts
Storm Reports Obs
Monitoring

iAlert Weather and Emergency Alert Notification Services:


ialert severe weather and emergency alerts by text message and email ialert daily weather forecast by email and text message service ialert real-time weather-observation monitoring and alert notification service ialert storm report monitoring alert notification

Observation History for Fort Hood, Hood AAF Ft Hood, TX


Time Wind
(mph)
Vis
(mi)
Weather Precip (in) Temperature (F) Relative
Humidity
Wind
Chill
(°F)
Heat
Index
(°F)
Pressure
Air Dwpt altimeter
(in)
sea level
(mb)
9:58 am CST S 12.7 G 19.6 10.00 Overcast -- 60.0 53.8 81% 58 NA 29.80 1008.7
8:58 am CST S 13.8 9.00 Overcast -- 58.0 53.1 85% 55 NA 29.78 1008.1
7:58 am CST S 12.7 10.00 Overcast -- 56.0 52.5 87% 53 NA 29.80 1008.7
6:58 am CST S 12.7 10.00 Partly Cloudy -- 56.0 52.2 87% 53 NA 29.78 1008.1
5:58 am CST S 19.6 G 27.6 10.00 Mostly Cloudy -- 57.0 52.2 83% 53 NA 29.78 1008.0
4:58 am CST S 18.4 G 25.3 10.00 Overcast -- 58.0 51.8 81% 54 NA 29.80 1008.6
3:58 am CST S 12.7 10.00 Overcast -- 56.0 51.6 84% 53 NA 29.81 1008.9
2:58 am CST S 16.1 G 23.0 10.00 Overcast -- 57.0 51.4 83% 53 NA 29.82 1009.3
1:58 am CST S 13.8 G 24.2 10.00 Overcast -- 56.0 50.7 83% 53 NA 29.84 1010.0
12:58 am CST S 18.4 G 24.2 10.00 Overcast -- 56.0 50.5 81% 52 NA 29.86 1010.7
11:58 pm CST S 13.8 G 20.7 10.00 Overcast -- 56.0 50.5 82% 53 NA 29.89 1011.9
10:58 pm CST S 16.1 G 23.0 10.00 Overcast -- 56.0 50.4 81% 52 NA 29.90 1012.3
9:58 pm CST S 18.4 G 26.5 10.00 Overcast -- 56.0 49.5 80% 52 NA 29.88 1011.7
8:58 pm CST S 16.1 G 24.2 10.00 Fair -- 54.0 47.8 79% 50 NA 29.90 1012.5
7:58 pm CST S 13.8 10.00 Fair -- 56.0 47.1 72% 53 NA 29.91 1012.9
6:58 pm CST S 13.8 G 20.7 10.00 Fair -- 58.0 46.6 67% 55 NA 29.91 1012.8
5:58 pm CST SE 15.0 10.00 Fair -- 60.0 45.5 60% 57 NA 29.92 1013.2
4:58 pm CST S 16.1 G 24.2 10.00 Fair -- 63.0 43.7 50% 61 NA 29.93 1013.4
3:58 pm CST S 19.6 G 27.6 10.00 Fair -- 64.0 42.3 46% NA NA 29.94 1013.8
2:58 pm CST S 17.3 G 23.0 10.00 Fair -- 63.0 41.7 46% 61 NA 29.97 1014.7
1:58 pm CST S 19.6 G 23.0 10.00 Fair -- 61.0 41.4 48% 58 NA 29.99 1015.5
12:58 pm CST S 18.4 10.00 Fair -- 58.0 41.2 53% 54 NA 30.05 1017.5
11:58 am CST S 16.1 G 24.2 10.00 Fair -- 55.0 40.1 57% 51 NA 30.09 1019.0
10:58 am CST S 18.4 G 24.2 10.00 Fair -- 51.0 39.0 63% 45 NA 30.11 1019.7

Regional Weather Observation


Gatesville, City-County Airport, TX (KGOP)

Mostly Cloudy
61.0 F

Fort Hood, Hood AAF Ft Hood, TX (KHLR)

Overcast
60.0 F

Killeen, Skylark Field Airport, TX (KILE)

Overcast
NULL F

Lampasas, Lampasas Airport, TX (KLZZ)

Overcast
60.0 F

Temple, Draughon-Miller Central Texas Regional Airport, TX (KTPL)

Overcast
61.0 F

Hamilton Municipal Airport, TX (KMNZ)

Overcast and Windy
61.0 F

Advertise Here


Advertise Here